User: anonymous
Location: Blue Mountain Vista Observatory
(40.6992°N, 75.9422°W)
Time: 00:32:42
(UTC-04:00)
Language:

IDEFIX/ARIANE 42P - Orbit

View from above orbital plane
View from above orbital plane
View from above satellite
View from above satellite

Ground track
Ground track

The orbit data is extracted from the following two-line orbital elements,

1 27422U 02021B   14110.11976824  .00000323  00000-0  14378-3 0  4659
2 27422 098.3061 155.3503 0013198 060.4339 356.6014 14.28999476621840
Epoch (UTC): 20 April 2014 02:52:27
Eccentricity: 0.0013198
inclination: 98.3061°
perigee height: 785 km
apogee height: 804 km
right ascension of ascending node: 155.3503°
argument of perigee: 60.4339°
revolutions per day: 14.28999476
mean anomaly at epoch: 356.6014°
orbit number at epoch: 62184

The dashed part of the orbit path shows where the satellite is in the earth's shadow,  

DLR